Retour au catalogue

NOAA 16 DEB

ActifSSO
NORAD 41356·DEBRIS·🇺🇸 United States

Lancé Sep 21, 2000 depuis Vandenberg Space Force Base

Loading…

Prochains Passages (prochaines 24 heures)

TLE

FraisSource: Space-Track

Époque: Sep 13, 2026, 09:08 UTC

1 41356U 00055HZ  26256.38107992  .00002217  00000-0  97807-3 0  9995
2 41356  98.7447 311.6457 0037257 238.5483 121.2051 14.23986207549927

Suivez NOAA 16 DEB en temps réel avec AllMySat

Download on the App Store